Flag for Germany Weather past 2 weeks in Kamen, North Rhine-Westphalia, Germany

Now
66 °F

Sunny.


Feels Like: 66 °F
Forecast: 62 / 75 °F
Wind: 7 mph from Southeast

Location: Dortmund / Wickede

Current Time: Aug 2, 2014 at 8:42:38 AM

Latest Report: Aug 2, 2014 at 7:50 AM


Visibility: 10 mi

Pressure: 29.77 "Hg

Humidity: 68%

Dew point: 55 °F

Location of KamenLocation

Historic Weather in Kamen — Graph

°F

Kamen temperature yesterday

Maximum temperature yesterday: 81 °F (at 2:50 PM)
Minimum temperature yesterday: 61 °F (at 5:20 AM)
Average temperature yesterday: 74 °F

Past Weeks' High & Low Weather Summary

 TemperatureHumidityPressure
High90 °F (Jul 19, 1:20 PM)100% (Jul 21, 12:50 PM)30.09 "Hg (Jul 21, 12:50 PM)
Low54 °F (Jul 31, 5:50 AM)22% (Jul 19, 2:50 PM)29.77 "Hg (Jul 20, 5:20 AM)
Average72 °F65%29.93 "Hg
* Reported Jul 18 7:20 AM — Aug 2 7:20 AM, Kamen, Weather by CustomWeather, © 2014

Note: Actual official high and low records may vary slightly from our data, if they occured in-between our weather recording intervals... More about our weather records

Advertising

Kamen weather history for previous 24 hours

 ConditionsComfort  
Time TempWeatherWind HumidityBarometerVisibility
7:20 AM
Aug 2
64 °FSunny.7 mph68%29.77 "Hg10 mi
6:50 AM64 °FClear.7 mph68%29.77 "Hg10 mi
6:20 AM63 °FClear.6 mph77%29.77 "Hg10 mi
5:50 AM61 °FClear.3 mph77%29.77 "Hg10 mi
5:20 AM63 °FClear.6 mph73%29.77 "Hg10 mi
10:50 PM
Aug 1
73 °FClear.6 mph57%29.83 "Hg10 mi
10:20 PM73 °FClear.5 mph53%29.83 "Hg10 mi
9:50 PM73 °FPassing clouds.5 mph53%29.83 "HgN/A
9:20 PM75 °FSunny.3 mph50%29.80 "Hg10 mi
8:50 PM75 °FSunny.3 mph47%29.83 "Hg10 mi
8:20 PM77 °FPassing clouds.7 mph44%29.83 "HgN/A
7:50 PM77 °FSunny.3 mph44%29.80 "Hg10 mi
7:20 PM81 °FSunny.2 mph32%29.83 "Hg10 mi
6:50 PM81 °FSunny.2 mph34%29.83 "Hg10 mi
6:20 PM81 °FSunny.3 mph37%29.83 "Hg10 mi
5:50 PM77 °FSunny.3 mph42%29.83 "Hg10 mi
5:20 PM81 °FSunny.5 mph34%29.83 "Hg10 mi
4:50 PM81 °FPassing clouds.5 mph37%29.83 "HgN/A
4:20 PM77 °FPassing clouds.7 mph44%29.83 "HgN/A
3:50 PM79 °FPassing clouds.5 mph42%29.86 "HgN/A
3:20 PM81 °FPassing clouds.7 mph42%29.86 "HgN/A
2:50 PM81 °FPassing clouds.6 mph42%29.86 "HgN/A
2:20 PM77 °FPassing clouds.7 mph47%29.86 "HgN/A
1:50 PM79 °FPassing clouds.7 mph45%29.86 "HgN/A
1:20 PM79 °FPassing clouds.8 mph39%29.86 "HgN/A
12:50 PM79 °FPassing clouds.10 mph45%29.86 "HgN/A
12:20 PM77 °FSunny.8 mph47%29.86 "Hg10 mi
11:50 AM77 °FSunny.9 mph47%29.89 "Hg10 mi
11:20 AM75 °FPassing clouds.8 mph47%29.89 "HgN/A
10:50 AM75 °FPassing clouds.9 mph47%29.89 "HgN/A
10:20 AM73 °FPassing clouds.8 mph57%29.89 "HgN/A
9:50 AM72 °FSunny.7 mph57%29.89 "Hg10 mi
9:20 AM68 °FPassing clouds.8 mph64%29.89 "HgN/A
8:50 AM66 °FSunny.8 mph64%29.89 "Hg10 mi
8:20 AM66 °FSunny.6 mph64%29.89 "Hg10 mi
Weather by CustomWeather, © 2014

See weather overviewHow to use our weather pages